Weather History for Clarksville, TN

Change the Weather History Date:

Thursday, March 27, 2014

  Actual Average Record
Temperature  
Mean Temperature 52 °F -  
Max Temperature 64 °F - 82 °F (2007)
Min Temperature 42 °F - 18 °F (1955)
Degree Days  
Heating Degree Days 12    
Month to date heating degree days  
Since 1 July heating degree days  
Cooling Degree Days 0    
Month to date cooling degree days  
Growing Degree Days 2 (Base 50)    
Moisture  
Dew Point 30 °F    
Average Humidity 46    
Maximum Humidity 86    
Minimum Humidity 27    
Precipitation  
Precipitation 0.39 in - 0.99 in (1984)
Month to date precipitation  
Sea Level Pressure  
Sea Level Pressure 30.01 in    
Wind  
Wind Speed 12 mph (South)    
Max Wind Speed 28 mph    
Max Gust Speed 37 mph    
Visibility 9 miles    
Events Rain , Thunderstorm    
T = Trace of Precipitation, MM = Missing Value Source: NWS Daily Summary

Daily Weather History Graph

Daily Weather History Graph

Search for Another Location

Airport:

Trip Planner

Search our weather history database for the weather conditions in past years. The results will help you decide how hot, cold, wet, or windy it might be!

Date:

Astronomy

Mar. 27, 2014 Rise Set
Actual Time 6:42 AM CDT 7:07 PM CDT
Civil Twilight 6:17 AM CDT 7:33 PM CDT
Nautical Twilight 5:46 AM CDT 8:03 PM CDT
Astronomical Twilight 5:15 AM CDT 8:34 PM CDT
Moon 4:28 AM CDT (3/27) 3:59 PM CDT (3/27)
Length of Visible Light 13h 16m
Length of Day
12h 24m
Waning Crescent, 13% of the Moon is Illuminated
Mar 27
Waning Crescent
Mar 30
New
Apr 7
First Quarter
Apr 15
Full
Apr 22
Last Quarter

Hourly Weather History & Observations

Time (CDT) Temp. Windchill Dew Point Humidity Pressure Visibility Wind Dir Wind Speed Gust Speed Precip Events Conditions
12:52 AM 42.1 °F 39.2 °F 18.0 °F 38% 30.19 in 10.0 mi SSE 4.6 mph - N/A   Partly Cloudy
1:52 AM 42.1 °F 38.4 °F 19.0 °F 40% 30.17 in 10.0 mi SE 5.8 mph - N/A   Overcast
2:52 AM 43.0 °F 37.7 °F 18.0 °F 37% 30.13 in 10.0 mi SSE 9.2 mph - N/A   Overcast
3:52 AM 44.1 °F 38.1 °F 17.1 °F 34% 30.12 in 10.0 mi SSE 11.5 mph - N/A   Overcast
4:52 AM 43.0 °F 37.7 °F 19.9 °F 40% 30.10 in 10.0 mi SSE 9.2 mph - 0.00 in   Overcast
5:52 AM 43.0 °F 37.7 °F 24.1 °F 47% 30.11 in 10.0 mi SSE 9.2 mph - 0.00 in Rain Light Rain
6:52 AM 43.0 °F 36.4 °F 25.0 °F 49% 30.10 in 10.0 mi SSE 12.7 mph - 0.00 in   Overcast
7:52 AM 45.0 °F 40.1 °F 26.1 °F 48% 30.10 in 10.0 mi South 9.2 mph 19.6 mph N/A   Overcast
8:52 AM 46.9 °F - 25.0 °F 42% 30.09 in 10.0 mi South 13.8 mph 21.9 mph N/A   Overcast
9:52 AM 50.0 °F - 26.1 °F 39% 30.08 in 10.0 mi South 13.8 mph 23.0 mph N/A   Overcast
10:52 AM 53.1 °F - 24.1 °F 32% 30.09 in 10.0 mi South 23.0 mph 35.7 mph N/A   Overcast
11:52 AM 54.0 °F - 26.1 °F 34% 30.07 in 10.0 mi South 27.6 mph 36.8 mph N/A   Overcast
12:52 PM 54.0 °F - 27.0 °F 35% 30.04 in 10.0 mi South 21.9 mph 33.4 mph N/A   Overcast
1:52 PM 59.0 °F - 28.9 °F 32% 29.99 in 10.0 mi South 20.7 mph 29.9 mph N/A   Scattered Clouds
2:52 PM 62.1 °F - 30.9 °F 31% 29.94 in 10.0 mi South 16.1 mph 21.9 mph N/A   Overcast
3:52 PM 63.0 °F - 30.0 °F 29% 29.91 in 10.0 mi South 18.4 mph 28.8 mph N/A   Clear
4:52 PM 62.1 °F - 28.9 °F 29% 29.90 in 10.0 mi South 15.0 mph 26.5 mph N/A   Partly Cloudy
5:50 PM 62.6 °F - 28.4 °F 27% 29.91 in 10.0 mi South 12.7 mph - N/A Thunderstorm Mostly Cloudy
5:52 PM 62.1 °F - 28.0 °F 28% 29.91 in 10.0 mi SSW 11.5 mph - N/A Thunderstorm Mostly Cloudy
6:05 PM 60.1 °F - 34.0 °F 38% 29.92 in 9.0 mi South 9.2 mph - 0.00 in Rain Light Rain
6:52 PM 54.0 °F - 42.1 °F 64% 29.93 in 4.0 mi South 12.7 mph - 0.08 in Rain Light Rain
7:52 PM 51.1 °F - 46.0 °F 83% 29.87 in 3.0 mi SSE 20.7 mph 33.4 mph 0.15 in Rain Rain
8:52 PM 50.0 °F - 46.0 °F 86% 29.89 in 7.0 mi South 21.9 mph 29.9 mph 0.11 in Rain Light Rain
9:52 PM 51.1 °F - 45.0 °F 80% 29.91 in 10.0 mi South 16.1 mph 26.5 mph 0.05 in Rain Light Rain
10:52 PM 51.1 °F - 46.0 °F 83% 29.89 in 10.0 mi SSE 10.4 mph 18.4 mph 0.00 in   Overcast
11:52 PM 53.1 °F - 46.9 °F 80% 29.90 in 10.0 mi South 12.7 mph 20.7 mph N/A   Overcast